Photometre #44[NE_1.6] Toulon AOT

File : 20190928_44.hum

28/09/2019,06:18:47,TEMP=22.4,BA=5.32,STAT.A=8.5,ExtBa=12.98
28/09/2019,06:22:20,TEMP=22.7,BA=5.24,STAT.A=8.5,ExtBa=12.92
28/09/2019,06:26:30,TEMP=23.0,BA=5.24,STAT.A=8.5,ExtBa=12.88
28/09/2019,06:31:26,TEMP=23.3,BA=5.40,STAT.A=8.5,ExtBa=12.87
28/09/2019,06:37:24,TEMP=23.6,BA=5.40,STAT.A=8.5,ExtBa=12.88
28/09/2019,06:44:46,TEMP=23.9,BA=5.40,STAT.A=8.5,ExtBa=12.89
28/09/2019,06:54:05,TEMP=24.3,BA=5.48,STAT.B=9.0,ExtBa=12.90
28/09/2019,06:58:33,TEMP=24.5,BA=5.48,STAT.A=9.0,ExtBa=12.88
28/09/2019,07:03:33,TEMP=24.6,BA=5.40,STAT.A=9.0,ExtBa=12.89
28/09/2019,07:09:12,TEMP=24.9,BA=5.40,STAT.A=9.0,ExtBa=12.92
28/09/2019,07:15:40,TEMP=25.2,BA=5.40,STAT.A=9.0,ExtBa=12.96
28/09/2019,07:23:05,TEMP=25.5,BA=5.52,STAT.C=9.0,ExtBa=13.04
28/09/2019,07:31:43,TEMP=25.6,BA=5.52,STAT.A=9.0,ExtBa=13.15
28/09/2019,07:41:57,TEMP=26.0,BA=5.56,STAT.A=9.0,ExtBa=13.32
28/09/2019,07:54:16,TEMP=26.4,BA=5.56,STAT.A=9.0,ExtBa=13.55
28/09/2019,08:09:32,TEMP=26.3,BA=5.60,STAT.A=9.0,ExtBa=13.71
28/09/2019,08:27:14,TEMP=26.5,BA=5.64,STAT.F,ExtBa=13.82
28/09/2019,08:42:13,TEMP=26.5,BA=5.64,STAT.D=9.0,ExtBa=13.89
28/09/2019,08:57:13,TEMP=26.7,BA=5.64,STAT.D=9.0,ExtBa=13.95
28/09/2019,09:12:15,TEMP=27.2,BA=5.64,STAT.D=9.0,ExtBa=13.99
28/09/2019,09:27:19,TEMP=28.1,BA=5.64,STAT.F,ExtBa=14.05
28/09/2019,09:42:11,TEMP=28.5,BA=5.64,STAT.D=9.0,ExtBa=14.08
28/09/2019,09:57:12,TEMP=28.7,BA=5.64,STAT.D=9.0,ExtBa=14.08
28/09/2019,09:58:50,TEMP=29.0,BA=5.64,STAT.b=9.0
28/09/2019,10:12:11,TEMP=28.9,BA=5.64,STAT.D=9.0,ExtBa=14.11
28/09/2019,10:27:13,TEMP=28.9,BA=5.64,STAT.F,ExtBa=14.14
28/09/2019,10:42:12,TEMP=29.2,BA=5.64,STAT.D=9.0,ExtBa=14.13
28/09/2019,10:57:13,TEMP=29.4,BA=5.64,STAT.D=9.0,ExtBa=14.11
28/09/2019,11:12:11,TEMP=29.8,BA=5.64,STAT.D=9.0,ExtBa=14.13
28/09/2019,11:27:14,TEMP=29.7,BA=5.64,STAT.F,ExtBa=14.14
28/09/2019,11:42:16,TEMP=29.6,BA=5.64,STAT.D=9.0,ExtBa=14.13
28/09/2019,11:57:13,TEMP=29.6,BA=5.64,STAT.D=9.0,ExtBa=14.13
28/09/2019,12:12:14,TEMP=29.4,BA=5.64,STAT.D=9.0,ExtBa=13.97
28/09/2019,12:27:15,TEMP=29.6,BA=5.64,STAT.F,ExtBa=14.13
28/09/2019,12:42:14,TEMP=29.7,BA=5.64,STAT.D=9.0,ExtBa=14.13
28/09/2019,12:57:12,TEMP=29.3,BA=5.64,STAT.D=9.0,ExtBa=14.14
28/09/2019,13:12:13,TEMP=29.4,BA=5.64,STAT.D=9.0,ExtBa=14.12
28/09/2019,13:27:13,TEMP=28.6,BA=5.64,STAT.F,ExtBa=14.14
28/09/2019,13:28:51,TEMP=28.7,BA=5.64,STAT.b=9.0
28/09/2019,13:42:28,TEMP=28.1,BA=5.64,STAT.D=9.0,ExtBa=14.12
28/09/2019,13:57:11,TEMP=27.7,BA=5.64,STAT.D=9.0,ExtBa=14.14
28/09/2019,14:12:11,TEMP=27.6,BA=5.64,STAT.D=9.0,ExtBa=14.13
28/09/2019,14:27:12,TEMP=27.0,BA=5.64,STAT.F,ExtBa=14.12
28/09/2019,14:44:54,TEMP=26.6,BA=5.64,STAT.A=9.0,ExtBa=14.11
28/09/2019,15:00:10,TEMP=26.5,BA=5.52,STAT.A=9.0,ExtBa=14.08
28/09/2019,15:12:30,TEMP=26.3,BA=5.64,STAT.A=9.0,ExtBa=14.06
28/09/2019,15:22:42,TEMP=26.2,BA=5.64,STAT.A=9.0,ExtBa=14.04
28/09/2019,15:31:22,TEMP=26.1,BA=5.64,STAT.C=9.0,ExtBa=14.01
28/09/2019,15:38:47,TEMP=25.9,BA=5.64,STAT.A=9.0,ExtBa=13.99
28/09/2019,15:45:13,TEMP=25.8,BA=5.52,STAT.A=9.0,ExtBa=13.96
28/09/2019,15:50:54,TEMP=25.8,BA=5.64,STAT.A=9.0,ExtBa=13.94
28/09/2019,15:55:53,TEMP=25.7,BA=5.64,STAT.A=9.0,ExtBa=13.91
28/09/2019,16:00:21,TEMP=25.6,BA=5.64,STAT.B=9.0,ExtBa=13.88
28/09/2019,16:09:40,TEMP=25.3,BA=5.64,STAT.A=9.0,ExtBa=13.83
28/09/2019,16:17:02,TEMP=25.1,BA=5.52,STAT.A=9.0,ExtBa=13.76
28/09/2019,16:23:00,TEMP=24.9,BA=5.60,STAT.A=9.0,ExtBa=13.70
28/09/2019,16:27:56,TEMP=24.8,BA=5.60,STAT.A=9.0,ExtBa=13.63
28/09/2019,16:32:06,TEMP=24.7,BA=5.56,STAT.A=9.0,ExtBa=13.56
28/09/2019,16:35:37,TEMP=24.6,BA=5.56,STAT.A=9.0,ExtBa=13.48